map of LRT home
LRT - Airport
Location
City:  Lorient, Bretagne, France
Name:Lann Bihoue
ICAO:LFRH
IATA:LRT

Details
Type:Airport (Aerodrome, Airfield)
Use:Military
Latitude:4745'38"N (47.760533)
Longitude:326'24"W (-3.439952)
Elevation:169 ft (52 m)
Variation:1.01W (WMM2015 magnetic declination)
0.14 annual change
Runways:2
Longest:7884 × 148 ft (2403 × 45 m)

Time
Time Zone:UTC+1 (DST+2)
Local Time:

Weather
METAR:LFRH 210930Z AUTO VRB03KT 6000 NSC 02/00 Q1025 NOSIG
TAF:LFRH 210500Z 2106/2206 34005KT 7000 NSC
TEMPO 2106/2108 3000 BR PROB30
TEMPO 2106/2108 1000 FZFG
BECMG 2110/2114 BKN020 OVC030
BECMG 2116/2118 22010KT
BECMG 2120/2122 22015G25KT 5000 -RA OVC015
TEMPO 2203/2205 30020G35KT 4000 RA
BECMG 2204/2206 30010KT 9999 NSW OVC040

Related Locations
Nearby:
Farthest:NZTI: 12116 mi / 19499 km
Taieri, OTA, NZ

Find:

   beyond  
but within

Other Information
Maps:
NOTAMs:
Links:
Sources:

  
  • flag of France
  • flag of Bretagne
  

Sectional Chart

Flight Planning
at skyvector.com

Satellite Image

Google Maps Satellite view

 

Copyright © 2004-2019 Karl L. Swartz. All rights reserved.
The Great Circle Mapper name and logo are trademarks of the Great Circle Mapper.
All other trademarks mentioned herein belong to their respective owners.
Please see credits for attibutions and further copyright information.

  Follow gcmap on Facebook Follow gcmap on Twitter Follow gcmap on Google+ GCmap on LinkedIn

hCard Microformat

Geo Microformat